Вернуться в каталог

STARLINK-11342

АктивенСвязьVLEO
NORAD 61580·PAYLOAD·🇺🇸 United States

Запущен Oct 18, 2024 с Cape Canaveral Space Force Station

Loading…

Ближайшие Пролёты (ближайшие 24 часа)

TLE

СвежийSource: CelesTrak SupGP

Эпоха: Sep 15, 2026, 02:23 UTC

1 61580C 24187G   26258.09979167  .00011933  00000+0  98222-4 0  2584
2 61580  53.1567  82.2127 0001025  78.3506 282.1008 15.69722303    18

Отслеживайте STARLINK-11342 в реальном времени с AllMySat

Download on the App Store